Drummond Island, MI

7:11 PM EST on February 19, 2017 (GMT -0500)
Drummond Island

Weather History for KDRM - May, 2013

Change the Weather History Date:

Tuesday, May 7, 2013

  Actual Average (KCIU) Record (KCIU)
Temperature  
Mean Temperature 54 °F -  
Max Temperature 72 °F 60 °F 80 °F (2015)
Min Temperature 37 °F 36 °F 25 °F (1980)
Degree Days  
Heating Degree Days 10    
Growing Degree Days 4 (Base 50)    
Moisture  
Dew Point 36 °F    
Average Humidity 55    
Maximum Humidity 98    
Minimum Humidity 21    
Precipitation  
Precipitation 0.00 in - - ()
Sea Level Pressure  
Sea Level Pressure 30.07 in    
Wind  
Wind Speed 2 mph (South)    
Max Wind Speed 9 mph    
Max Gust Speed -    
Visibility 10 miles    
Events      
Averages and records for this station are not official NWS values.
T = Trace of Precipitation, MM = Missing Value Source: NWS Daily Summary

Daily Weather History Graph

Daily Weather History Graph

Search for Another Location

Airport or City:

Trip Planner

Search our weather history database for the weather conditions in past years. The results will help you decide how hot, cold, wet, or windy it might be!

Date:

Astronomy

May. 07, 2013 Rise Set
Actual Time 6:12 AM EDT 8:51 PM EDT
Civil Twilight 5:38 AM EDT 9:25 PM EDT
Nautical Twilight 4:56 AM EDT 10:08 PM EDT
Astronomical Twilight 4:06 AM EDT 10:58 PM EDT
Moon 4:53 AM EDT (5/7) 6:44 PM EDT (5/7)
Length of Visible Light 15h 46m
Length of Day
14h 38m
Waning Crescent, 5% of the Moon is Illuminated
May 7
Waning Crescent
May 9
New
May 18
First Quarter
May 25
Full
May 31
Last Quarter

Hourly Weather History & Observations

Time (EDT) Temp. Windchill Dew Point Humidity Pressure Visibility Wind Dir Wind Speed Gust Speed Precip Events Conditions
12:16 AM 42.6 °F - 38.1 °F 84% 30.07 in 10.0 mi Calm Calm - N/A   Clear
12:35 AM 42.6 °F - 37.4 °F 82% 30.06 in 10.0 mi Calm Calm - N/A   Clear
12:56 AM 41.9 °F - 37.9 °F 86% 30.07 in 10.0 mi Calm Calm - N/A   Clear
1:15 AM 40.5 °F - 37.4 °F 89% 30.07 in 10.0 mi Calm Calm - N/A   Clear
1:35 AM 42.4 °F - 37.6 °F 83% 30.06 in 10.0 mi Calm Calm - N/A   Clear
1:56 AM 41.0 °F - 37.4 °F 87% 30.06 in 10.0 mi Calm Calm - N/A   Clear
2:15 AM 40.6 °F - 37.4 °F 88% 30.06 in 10.0 mi Calm Calm - N/A   Clear
2:35 AM 40.3 °F - 37.6 °F 90% 30.06 in 10.0 mi Calm Calm - N/A   Clear
2:56 AM 39.2 °F - 37.6 °F 94% 30.05 in 10.0 mi Calm Calm - N/A   Clear
3:15 AM 40.3 °F - 38.5 °F 93% 30.05 in 10.0 mi Calm Calm - N/A   Clear
3:35 AM 39.6 °F - 37.9 °F 94% 30.05 in 10.0 mi Calm Calm - N/A   Clear
3:55 AM 39.6 °F 37.4 °F 37.6 °F 93% 30.05 in 10.0 mi North 3.5 mph - N/A   Clear
4:15 AM 39.0 °F - 37.4 °F 94% 30.06 in 10.0 mi Calm Calm - N/A   Clear
4:36 AM 38.5 °F - 36.3 °F 92% 30.06 in 10.0 mi Calm Calm - N/A   Clear
4:55 AM 38.7 °F - 36.9 °F 93% 30.06 in 10.0 mi Calm Calm - N/A   Clear
5:16 AM 37.4 °F - 35.8 °F 94% 30.06 in 10.0 mi Calm Calm - N/A   Clear
5:36 AM 39.0 °F - 37.9 °F 96% 30.06 in 10.0 mi Calm Calm - N/A   Clear
6:16 AM 38.7 °F - 37.8 °F 97% 30.07 in 10.0 mi Calm Calm - N/A   Clear
6:35 AM 38.1 °F - 36.9 °F 95% 30.07 in 10.0 mi Calm Calm - N/A   Clear
6:55 AM 37.4 °F - 36.9 °F 98% 30.08 in 7.0 mi Calm Calm - N/A   Clear
7:16 AM 39.4 °F - 38.7 °F 97% 30.08 in 10.0 mi Calm Calm - N/A   Clear
7:35 AM 43.2 °F - 42.4 °F 97% 30.09 in 10.0 mi Calm Calm - N/A   Clear
7:55 AM 48.6 °F - 44.2 °F 85% 30.09 in 10.0 mi Calm Calm - N/A   Clear
8:15 AM 51.1 °F - 45.5 °F 81% 30.10 in 10.0 mi Calm Calm - N/A   Clear
8:36 AM 52.7 °F - 46.4 °F 79% 30.10 in 10.0 mi North 3.5 mph - N/A   Clear
8:55 AM 54.7 °F - 47.1 °F 76% 30.11 in 10.0 mi Calm Calm - N/A   Clear
9:15 AM 58.1 °F - 46.4 °F 65% 30.11 in 10.0 mi Calm Calm - N/A   Clear
9:36 AM 58.6 °F - 46.0 °F 63% 30.12 in 10.0 mi Calm Calm - N/A   Clear
9:55 AM 63.3 °F - 44.1 °F 49% 30.12 in 10.0 mi Calm Calm - N/A   Clear
10:16 AM 64.6 °F - 45.5 °F 50% 30.12 in 10.0 mi South 4.6 mph - N/A   Clear
10:35 AM 64.0 °F - 42.4 °F 45% 30.12 in 10.0 mi Calm Calm - N/A   Clear
10:55 AM 65.7 °F - 39.9 °F 39% 30.12 in 10.0 mi Calm Calm - N/A   Clear
11:16 AM 67.6 °F - 38.7 °F 35% 30.12 in 10.0 mi Calm Calm - N/A   Clear
11:56 AM 68.4 °F - 37.6 °F 32% 30.12 in 10.0 mi SSW 4.6 mph - N/A   Clear
12:16 PM 69.3 °F - 36.9 °F 30% 30.12 in 10.0 mi SSW 3.5 mph - N/A   Clear
12:35 PM 69.6 °F - 37.8 °F 31% 30.11 in 10.0 mi SSE 5.8 mph - N/A   Clear
12:56 PM 69.3 °F - 36.0 °F 29% 30.11 in 10.0 mi SSE 5.8 mph - N/A   Clear
1:15 PM 70.2 °F - 35.8 °F 28% 30.10 in 10.0 mi South 4.6 mph - N/A   Clear
1:35 PM 70.3 °F - 35.8 °F 28% 30.10 in 10.0 mi South 4.6 mph - N/A   Clear
1:56 PM 72.1 °F - 34.5 °F 25% 30.09 in 10.0 mi SSW 6.9 mph - N/A   Clear
2:15 PM 71.6 °F - 34.5 °F 26% 30.09 in 10.0 mi SSW 4.6 mph - N/A   Clear
2:35 PM 71.6 °F - 34.9 °F 26% 30.09 in 10.0 mi SW 6.9 mph - N/A   Clear
2:56 PM 71.8 °F - 36.0 °F 27% 30.08 in 10.0 mi South 6.9 mph - N/A   Clear
3:15 PM 71.6 °F - 35.1 °F 26% 30.08 in 10.0 mi SSW 6.9 mph - N/A   Clear
3:35 PM 72.3 °F - 32.9 °F 23% 30.08 in 10.0 mi SE 6.9 mph - N/A   Clear
3:56 PM 71.6 °F - 31.1 °F 22% 30.07 in 10.0 mi South 8.1 mph - N/A   Clear
4:15 PM 71.8 °F - 30.2 °F 21% 30.07 in 10.0 mi SSE 6.9 mph - N/A   Clear
4:36 PM 72.0 °F - 31.1 °F 22% 30.06 in 10.0 mi South 5.8 mph - N/A   Clear
4:55 PM 72.1 °F - 30.6 °F 22% 30.06 in 10.0 mi South 9.2 mph - N/A   Clear
5:15 PM 72.5 °F - 30.9 °F 22% 30.06 in 10.0 mi South 6.9 mph - N/A   Clear
5:36 PM 71.6 °F - 30.2 °F 22% 30.06 in 10.0 mi SSW 8.1 mph - N/A   Clear
5:55 PM 71.4 °F - 30.7 °F 22% 30.05 in 10.0 mi SSE 6.9 mph - N/A   Clear
6:15 PM 70.2 °F - 29.5 °F 22% 30.05 in 10.0 mi South 9.2 mph - N/A   Clear
6:36 PM 68.7 °F - 30.0 °F 24% 30.06 in 10.0 mi South 6.9 mph - N/A   Clear
6:55 PM 66.9 °F - 29.7 °F 25% 30.06 in 10.0 mi South 8.1 mph - N/A   Clear
7:15 PM 66.6 °F - 31.6 °F 27% 30.05 in 10.0 mi SSE 4.6 mph - N/A   Clear
7:36 PM 65.1 °F - 31.5 °F 28% 30.05 in 10.0 mi SSE 5.8 mph - N/A   Clear
7:55 PM 64.4 °F - 30.7 °F 28% 30.05 in 10.0 mi SSE 4.6 mph - N/A   Clear
8:16 PM 62.1 °F - 30.7 °F 31% 30.05 in 10.0 mi South 4.6 mph - N/A   Clear
8:36 PM 59.2 °F - 30.6 °F 34% 30.05 in 10.0 mi SSE 3.5 mph - N/A   Clear
8:55 PM 57.0 °F - 30.0 °F 36% 30.05 in 10.0 mi SSE 5.8 mph - N/A   Clear
9:16 PM 55.4 °F - 27.9 °F 35% 30.05 in 10.0 mi SSE 4.6 mph - N/A   Clear
9:35 PM 52.7 °F - 28.4 °F 39% 30.05 in 10.0 mi SE 3.5 mph - N/A   Clear
9:55 PM 51.3 °F - 29.1 °F 43% 30.06 in 10.0 mi SE 3.5 mph - N/A   Clear
10:16 PM 49.6 °F - 30.9 °F 49% 30.06 in 10.0 mi SE 3.5 mph - N/A   Clear
10:35 PM 48.6 °F - 31.8 °F 52% 30.06 in 10.0 mi SSE 4.6 mph - N/A   Clear
10:56 PM 48.0 °F - 32.2 °F 54% 30.06 in 10.0 mi SSE 3.5 mph - N/A   Clear
11:15 PM 46.2 °F - 32.5 °F 59% 30.06 in 10.0 mi Calm Calm - N/A   Clear
11:35 PM 46.0 °F - 33.6 °F 62% 30.06 in 10.0 mi Calm Calm - N/A   Clear
11:56 PM 46.0 °F - 33.8 °F 62% 30.06 in 10.0 mi Calm Calm - N/A   Clear